Find Kosmos-1989

NORAD ID: 19751 Int'l Des: 1989-001 Owner: NPOPM Country: SU operational
MEOCIRCULAR

Live Position

Loading 3D Globe...

About Kosmos-1989

Description loading...

Upcoming Passes

Passes for default location (London). Set your location on the main map for personalized predictions.

Altitude History

Loading altitude history...

Two-Line Element Set

1 19751U 89001C 26103.73031122 .00000041 00000-0 00000-0 0 9997
2 19751 64.9099 74.3985 0023386 217.6625 325.7343 2.13155999289997
Epoch: Apr 13, 2026 • Age: 21 hours

Current Status

Altitude 19104.3 km
Velocity 3.96 km/s
Sub-Earth Point 27.09°N, 172.67°E
Launch Date Jan 10, 1989
Age 37.2 years
Type other

Technical Details

Classification Payload
Mass 1230.00 kg
Dry Mass 1230.00 kg
Total Mass 1230.00 kg
Length 1.30 m
Diameter 1.30 m
Span 1.30 m
Shape Sphere
Manufacturer OAZ
Bus Type Etalon
Phase Status In Orbit
Owner/State NPOPM/SU

Most Searched